[[{"header":{"parameterUnit":"m.s-1","parameterCategory":1,"la1":30.2991,"la2":30.254,"lo1":-89.0895,"lo2":-89.0444,"dy":0.0017,"dx":0.0017,"nx":28,"ny":28,"refTime":"2023-10-10T09:00:00:Z","depth":0,"parameterNumber":2,"parameterNumberName":"U-component_of_WINDS"},"data":[0,0,0,0,0,0,0,0,0,0,0,0,0,0,0,0,0,0,0,0,0,0,0,0,0,0,0,0,0,0,0,0,0,0,0,0,0,0,0,0,0,0,0,0,0,0,0,0,0,0,0,0,0,0,0,0,0,0,-3.2854,-3.2855,0,-3.2892,-3.2892,-3.2893,-3.2837,-3.2835,-3.2833,-3.2831,-3.287,-3.2873,-3.2875,0,0,0,0,0,0,0,0,0,0,0,0,0,-3.2733,-3.2736,-3.2854,-3.2855,-3.2855,-3.2892,-3.2892,-3.2893,-3.2837,-3.2834,-3.2832,-3.283,-3.2869,-3.2872,-3.2876,0,0,0,0,0,0,0,0,0,0,0,0,0,-3.278,-3.2736,-3.2854,-3.2832,-3.283,-3.2892,-3.2892,-3.2893,-3.2837,-3.2834,-3.2831,-3.2829,-3.2868,-3.2872,-3.2876,-3.2962,0,0,-3.2889,-3.2891,0,0,0,0,0,0,0,0,-3.2777,-3.2784,-3.2835,-3.2833,-3.2832,-3.2856,-3.2864,-3.2916,-3.2838,-3.2835,-3.2831,-3.2827,-3.2868,-3.2872,-3.2885,-3.2963,-3.2965,-3.289,-3.2892,-3.2894,-3.2895,0,0,0,0,0,0,0,-3.2774,-3.2782,-3.2869,-3.2835,-3.2834,-3.2819,-3.2823,-3.2873,-3.2867,-3.2835,-3.2831,-3.2836,-3.2866,-3.2881,-3.2886,-3.2966,-3.289,-3.2893,-3.2896,-3.2898,-3.3114,-3.3117,0,0,0,0,0,0,-3.2774,-3.278,-3.2868,-3.287,-3.2797,-3.2824,-3.2828,-3.2851,-3.2867,-3.2866,-3.2838,-3.2833,-3.2875,-3.2881,-3.2887,-3.2987,-3.2894,-3.2898,-3.2901,-3.3111,-3.3114,-3.3118,0,0,0,0,0,0,-3.2771,-3.2782,-3.2866,-3.2824,-3.2834,-3.2829,-3.2856,-3.2854,-3.2869,-3.2869,-3.2868,-3.2855,-3.2873,-3.2881,-3.2943,-3.2988,-3.29,-3.2904,-3.3107,-3.3112,-3.3116,-3.3189,0,0,0,0,0,0,-3.2768,-3.2781,-3.2814,-3.2825,-3.2836,-3.2923,-3.2859,-3.2857,-3.2876,-3.287,-3.2884,-3.2884,-3.2872,-3.2937,-3.2947,-3.2992,-3.2907,-3.3103,-3.3109,-3.3115,-3.3183,-3.3196,-3.3207,0,0,0,0,0,-3.2764,-3.2834,-3.2816,-3.2827,-3.2877,-3.2925,-3.2931,-3.2916,-3.288,-3.2913,-3.2913,-3.2884,-3.2981,-3.2944,-3.2955,-3.3002,-3.31,-3.3107,-3.3114,-3.3177,-3.3193,-3.3207,0,0,0,0,0,0,-3.283,-3.2835,-3.2816,-3.2891,-3.2908,-3.2916,-3.2957,-3.2933,-3.2961,-3.2953,-3.2932,-3.2936,-3.3003,-3.3008,-3.2967,-3.3084,-3.3034,-3.3044,-3.3079,-3.3094,-3.3106,-3.3103,-3.2911,0,0,0,0,0,-3.2853,-3.2891,-3.2894,-3.296,-3.297,-3.2962,-3.2982,-3.2968,-3.2985,-3.2992,-3.2996,-3.3013,-3.3047,-3.3071,-3.3102,-3.3183,-3.3184,-3.322,-3.3232,-3.3242,-3.3251,-3.3292,-3.3308,-3.3141,-3.3141,-3.3141,0,0,-3.2901,-3.2909,-3.2935,-3.2974,-3.2985,-3.3025,-3.2968,-3.3013,-3.3043,-3.2998,-3.3057,-3.3061,-3.3079,-3.315,-3.3181,-3.3156,-3.3297,-3.3251,-3.3259,-3.3263,-3.3301,-3.3317,-3.3331,-3.3146,-3.3145,-3.3144,0,0,-3.301,-3.302,-3.3076,-3.3088,-3.3105,-3.3099,-3.3113,-3.3123,-3.3124,-3.3182,-3.3149,-3.3183,-3.3243,-3.3257,-3.3272,-3.3383,-3.3357,-3.3393,-3.3457,-3.3498,-3.3511,-3.3523,-3.3562,-3.3576,-3.3402,-3.3402,-3.3402,0,-3.3069,-3.3128,-3.3108,-3.3155,-3.3172,-3.3133,-3.3189,-3.3202,-3.3229,-3.3242,-3.3213,-3.3286,-3.3295,-3.3368,-3.3395,-3.3408,-3.3422,-3.3392,-3.3511,-3.3522,-3.3533,-3.357,-3.3585,-3.3407,-3.3406,-3.3406,-3.3405,0,-3.3198,-3.3239,-3.3282,-3.3309,-3.3331,-3.3382,-3.3369,-3.3394,-3.3377,-3.3374,-3.3433,-3.3442,-3.3474,-3.349,-3.3475,-3.3561,-3.3545,-3.3514,-3.3464,-3.3553,-3.3588,-3.3602,-3.3413,-3.3411,-3.341,-3.3409,0,0,-3.3352,-3.3365,-3.3381,-3.3391,-3.3406,-3.3438,-3.3486,-3.3517,-3.3538,-3.3558,-3.3598,-3.3648,-3.3618,-3.3635,-3.3621,-3.3656,-3.3743,-3.362,-3.362,-3.3643,-3.3837,-3.386,-3.3877,-3.3725,-3.3727,-3.373,-3.3835,0,-3.3461,-3.3545,-3.3527,-3.3609,-3.3646,-3.3608,-3.365,-3.3664,-3.3661,-3.3692,-3.3689,-3.3725,-3.3683,-3.3693,-3.3726,-3.3725,-3.3781,-3.3717,-3.3762,-3.3764,-3.3759,-3.3895,-3.3921,-3.402,-3.3849,-3.3851,-3.3853,0,-3.3599,-3.3622,-3.3708,-3.3715,-3.373,-3.3768,-3.3794,-3.3824,-3.3838,-3.3833,-3.3851,-3.3828,-3.3876,-3.3824,-3.3889,-3.3845,-3.3862,-3.3864,-3.3867,-3.3871,-3.3814,-3.3903,-3.4051,-3.4066,-3.3874,-3.3872,-3.387,0,-3.3702,-3.3755,-3.3813,-3.3823,-3.3833,-3.386,-3.3866,-3.3876,-3.3895,-3.3917,-3.3929,-3.3957,-3.3972,-3.3994,-3.398,-3.3943,-3.4046,-3.3994,-3.4044,-3.4044,-3.4068,-3.4067,-3.4221,-3.4078,-3.4078,-3.4078,-3.4078,0,-3.3826,-3.388,-3.3859,-3.3895,-3.3953,-3.3931,-3.399,-3.3991,-3.4,-3.4035,-3.4003,-3.4036,-3.4015,-3.4046,-3.4035,-3.409,-3.4097,-3.4094,-3.4091,-3.4098,-3.4098,-3.4109,-3.4102,-3.4082,-3.4081,-3.408,-3.408,0,-3.3952,-3.394,-3.4,-3.4004,-3.4006,-3.4049,-3.4051,-3.4084,-3.4078,-3.4122,-3.4131,-3.4122,-3.4157,-3.4144,-3.4182,-3.4174,-3.4243,-3.4231,-3.4239,-3.4236,-3.4286,-3.4282,-3.4454,-3.4475,-3.4318,-3.432,-3.4321,0,-3.4032,-3.4072,-3.4079,-3.4099,-3.4107,-3.414,-3.4159,-3.4138,-3.4159,-3.4176,-3.4207,-3.4238,-3.4263,-3.432,-3.4316,-3.4344,-3.4332,-3.439,-3.4336,-3.4341,-3.4333,-3.4331,-3.4334,-3.4402,-3.4403,-3.4405,-3.4406,0,-3.4174,-3.4166,-3.4194,-3.4219,-3.4242,-3.4261,-3.4277,-3.4296,-3.4276,-3.43,-3.4335,-3.4354,-3.4391,-3.4422,-3.4447,-3.4452,-3.4426,-3.4423,-3.4436,-3.4443,-3.4446,-3.4445,-3.4268,-3.4419,-3.4418,-3.4417,-3.4416,-3.4416,-3.428,-3.4313,-3.4322,-3.4354,-3.4363,-3.4379,-3.4409,-3.4406,-3.4434,-3.4463,-3.4448,-3.4488,-3.4499,-3.4529,-3.4537,-3.4568,-3.4545,-3.4564,-3.4569,-3.4574,-3.4581,-3.4441,-3.4572,-3.4572,-3.4572,-3.4571,-3.4571,0,-3.442,-3.4424,-3.4453,-3.4476,-3.45,-3.4472,-3.4488,-3.451,-3.4545,-3.4557,-3.4581,-3.462,-3.465,-3.4648,-3.4675,-3.47,-3.4689,-3.4708,-3.4706,-3.4708,-3.46,-3.4585,-3.4717,-3.4717,-3.4717,-3.4717,-3.4717,-3.4717,-3.4497,-3.4551,-3.4543,-3.4601,-3.4604,-3.4643,-3.4654,-3.4667,-3.4676,-3.4721,-3.4745,-3.4743,-3.4749,-3.4777,-3.4802,-3.4801,-3.4812,-3.4836,-3.4831,-3.473,-3.4715,-3.4702,-3.4688,-3.4839,-3.4839,-3.4936,-3.4937,-3.4937]},{"header":{"parameterUnit":"m.s-1","parameterCategory":1,"la1":30.2991,"la2":30.254,"lo1":-89.0895,"lo2":-89.0444,"dy":0.0017,"dx":0.0017,"nx":28,"ny":28,"refTime":"2023-10-10T09:00:00:Z","depth":0,"parameterNumber":3,"parameterNumberName":"V-component_of_WINDS"},"data":[0,0,0,0,0,0,0,0,0,0,0,0,0,0,0,0,0,0,0,0,0,0,0,0,0,0,0,0,0,0,0,0,0,0,0,0,0,0,0,0,0,0,0,0,0,0,0,0,0,0,0,0,0,0,0,0,0,0,-6.34,-6.3401,0,-6.3498,-6.35,-6.3501,-6.345,-6.3448,-6.3445,-6.3443,-6.3538,-6.3543,-6.3548,0,0,0,0,0,0,0,0,0,0,0,0,0,-6.3161,-6.3165,-6.3399,-6.3401,-6.3402,-6.3498,-6.35,-6.3501,-6.3451,-6.3448,-6.3445,-6.3442,-6.3537,-6.3542,-6.3548,0,0,0,0,0,0,0,0,0,0,0,0,0,-6.3262,-6.3167,-6.3399,-6.3389,-6.3389,-6.3498,-6.35,-6.3501,-6.3452,-6.3448,-6.3444,-6.344,-6.3535,-6.3542,-6.3549,-6.3672,0,0,-6.3572,-6.3575,0,0,0,0,0,0,0,0,-6.3257,-6.3271,-6.3389,-6.339,-6.339,-6.3458,-6.345,-6.3558,-6.3453,-6.3428,-6.3443,-6.3438,-6.3514,-6.3523,-6.355,-6.3677,-6.3681,-6.3572,-6.3577,-6.358,-6.3582,0,0,0,0,0,0,0,-6.325,-6.3266,-6.3438,-6.3391,-6.3391,-6.3377,-6.3387,-6.347,-6.3491,-6.3429,-6.3426,-6.3439,-6.3514,-6.3543,-6.3552,-6.3682,-6.3572,-6.3579,-6.3583,-6.3586,-6.3914,-6.3918,0,0,0,0,0,0,-6.3244,-6.3261,-6.3435,-6.3441,-6.3313,-6.3384,-6.3396,-6.344,-6.349,-6.3494,-6.3442,-6.3436,-6.3532,-6.3543,-6.3555,-6.3702,-6.358,-6.3587,-6.3591,-6.391,-6.3915,-6.3919,0,0,0,0,0,0,-6.3239,-6.326,-6.3431,-6.335,-6.3371,-6.3393,-6.3443,-6.3444,-6.3473,-6.35,-6.3503,-6.3469,-6.353,-6.3545,-6.3644,-6.3705,-6.359,-6.3597,-6.3905,-6.3911,-6.3917,-6.3998,0,0,0,0,0,0,-6.3232,-6.3259,-6.3307,-6.3352,-6.3376,-6.3521,-6.3447,-6.3449,-6.3487,-6.348,-6.3525,-6.3529,-6.3528,-6.3633,-6.3651,-6.3713,-6.3603,-6.3899,-6.3907,-6.3915,-6.399,-6.4007,-6.4021,0,0,0,0,0,-6.3224,-6.3325,-6.331,-6.3331,-6.3438,-6.3524,-6.3538,-6.3536,-6.3492,-6.354,-6.3557,-6.3528,-6.3695,-6.3644,-6.3664,-6.3729,-6.3895,-6.3905,-6.3914,-6.3983,-6.4003,-6.402,0,0,0,0,0,0,-6.3285,-6.3331,-6.3315,-6.3434,-6.3476,-6.3516,-6.3577,-6.3557,-6.3611,-6.3602,-6.3595,-6.3606,-6.3709,-6.3728,-6.367,-6.385,-6.3788,-6.3802,-6.3834,-6.3853,-6.3868,-6.3861,-6.3609,0,0,0,0,0,-6.3313,-6.3382,-6.3417,-6.3519,-6.3541,-6.3555,-6.3593,-6.3588,-6.363,-6.3647,-6.3671,-6.3712,-6.3773,-6.3814,-6.3872,-6.3992,-6.4001,-6.4047,-6.4062,-6.4074,-6.4087,-6.415,-6.4171,-6.3951,-6.3951,-6.395,0,0,-6.337,-6.3404,-6.3447,-6.3532,-6.3564,-6.3633,-6.3571,-6.3647,-6.3698,-6.3658,-6.3754,-6.3773,-6.3817,-6.3927,-6.3977,-6.3947,-6.4149,-6.4086,-6.4096,-6.4102,-6.4162,-6.4183,-6.4202,-6.3957,-6.3956,-6.3955,0,0,-6.3511,-6.3544,-6.3632,-6.3665,-6.3715,-6.3724,-6.3745,-6.3788,-6.38,-6.3896,-6.3867,-6.3926,-6.4033,-6.4066,-6.4096,-6.4248,-6.4222,-6.4267,-6.4346,-6.4409,-6.4426,-6.4441,-6.4495,-6.4514,-6.4279,-6.4279,-6.4279,0,-6.3575,-6.3681,-6.3679,-6.3758,-6.3795,-6.3764,-6.3852,-6.3883,-6.3949,-6.3974,-6.394,-6.4073,-6.41,-6.4217,-6.4254,-6.428,-6.4303,-6.4262,-6.4424,-6.444,-6.4454,-6.4505,-6.4525,-6.4284,-6.4283,-6.4283,-6.4282,0,-6.3758,-6.3831,-6.3896,-6.3963,-6.4007,-6.4089,-6.4097,-6.4142,-6.4132,-6.4144,-6.4241,-6.4273,-6.4337,-6.4364,-6.4355,-6.448,-6.446,-6.4425,-6.4363,-6.448,-6.4528,-6.4547,-6.4291,-6.4289,-6.4288,-6.4287,0,0,-6.3941,-6.4004,-6.4028,-6.4057,-6.411,-6.4165,-6.4245,-6.431,-6.4348,-6.4393,-6.4459,-6.455,-6.4518,-6.4553,-6.4546,-6.4601,-6.4719,-6.456,-6.456,-6.4588,-6.4857,-6.4883,-6.4906,-6.4702,-6.4706,-6.4708,-6.4853,0,-6.4085,-6.4228,-6.4228,-6.4359,-6.4426,-6.4397,-6.4466,-6.4505,-6.4517,-6.4574,-6.4587,-6.4651,-6.4604,-6.4625,-6.4678,-6.4693,-6.4773,-6.4683,-6.4762,-6.4765,-6.4753,-6.4931,-6.4959,-6.5095,-6.4872,-6.4875,-6.4877,0,-6.4272,-6.4326,-6.4465,-6.4507,-6.4535,-6.4598,-6.4656,-6.4712,-6.4753,-6.4758,-6.4797,-6.4782,-6.4861,-6.4797,-6.4905,-6.4844,-6.4876,-6.4888,-6.4893,-6.4901,-6.4829,-6.4944,-6.5138,-6.5158,-6.4907,-6.4904,-6.4902,0,-6.4392,-6.4499,-6.4596,-6.4621,-6.4673,-6.4717,-6.474,-6.4778,-6.4817,-6.4867,-6.4891,-6.4949,-6.498,-6.5024,-6.5025,-6.4978,-6.5134,-6.5069,-6.5139,-6.5139,-6.5174,-6.5172,-6.5376,-6.5194,-6.5194,-6.5193,-6.5193,0,-6.4553,-6.4639,-6.465,-6.471,-6.4804,-6.4801,-6.4895,-6.4913,-6.4947,-6.5008,-6.4984,-6.5042,-6.5038,-6.5096,-6.5096,-6.5185,-6.5199,-6.5204,-6.5203,-6.5207,-6.5206,-6.5228,-6.5219,-6.5199,-6.5197,-6.5196,-6.5195,0,-6.4703,-6.4714,-6.4818,-6.4858,-6.487,-6.4938,-6.4971,-6.5026,-6.5036,-6.5114,-6.5131,-6.5147,-6.5213,-6.5217,-6.5293,-6.5293,-6.5401,-6.539,-6.5388,-6.5386,-6.5456,-6.5449,-6.5682,-6.5712,-6.551,-6.5512,-6.5513,0,-6.4806,-6.4872,-6.4919,-6.4959,-6.4985,-6.505,-6.509,-6.5088,-6.5129,-6.5182,-6.523,-6.5295,-6.5346,-6.5452,-6.5469,-6.5526,-6.5516,-6.5593,-6.5525,-6.5526,-6.5517,-6.5514,-6.552,-6.5607,-6.5609,-6.5611,-6.5613,0,-6.4987,-6.4989,-6.5048,-6.5109,-6.5157,-6.5204,-6.5248,-6.5281,-6.5284,-6.5332,-6.54,-6.544,-6.5518,-6.5582,-6.5638,-6.5658,-6.5636,-6.5634,-6.5653,-6.5658,-6.5655,-6.5657,-6.5425,-6.5629,-6.5627,-6.5626,-6.5625,-6.5625,-6.5116,-6.5173,-6.5216,-6.5282,-6.5315,-6.5356,-6.5411,-6.5428,-6.5485,-6.555,-6.5545,-6.562,-6.5658,-6.5731,-6.5757,-6.5814,-6.5787,-6.5815,-6.5822,-6.583,-6.5837,-6.5645,-6.5824,-6.5823,-6.5823,-6.5823,-6.5822,0,-6.5296,-6.5322,-6.5383,-6.5446,-6.5497,-6.5473,-6.552,-6.5564,-6.5632,-6.567,-6.5721,-6.5799,-6.586,-6.5881,-6.594,-6.5982,-6.5973,-6.5998,-6.5995,-6.6,-6.5857,-6.5835,-6.6004,-6.6004,-6.6004,-6.6004,-6.6004,-6.6004,-6.5396,-6.5491,-6.5498,-6.5608,-6.5632,-6.5708,-6.5737,-6.5774,-6.5805,-6.5894,-6.5945,-6.5959,-6.599,-6.6051,-6.6105,-6.6109,-6.6132,-6.6161,-6.6161,-6.6028,-6.601,-6.5992,-6.5971,-6.6166,-6.6166,-6.6299,-6.63,-6.6301]}]]